GEFSSE_850_meantemp_000.txt.gz
Temperature
23 22 22 22 21 21 20 20 20 19 18 18 18 17 17 17 17 17 17 17 17 17 17 17 17 17 17 17 17 17 17 17 17 17 17 17 17 17 17 17 17 17 17
23 23 22 22 21 20 20 19 19 18 18 17 17 17 17 17 17 17 17 17 17 17 17 17 17 17 17 17 17 17 17 16 16 17 17 16 17 17 17 17 17 17 17
23 22 22 22 21 20 20 19 19 18 17 17 17 17 17 17 17 17 17 17 17 17 17 17 17 17 17 17 17 17 16 16 17 17 17 16 17 16 17 17 17 17 17
23 22 22 22 21 20 20 19 19 18 17 17 17 17 17 17 17 17 17 17 17 16 17 17 17 17 17 17 17 16 16 16 17 17 17 17 16 16 16 17 17 17 17
22 22 22 22 21 21 20 20 19 19 18 17 17 17 17 17 17 17 17 17 17 16 17 16 17 17 17 17 17 17 17 17 17 17 17 16 16 16 16 16 16 16 16
22 22 21 21 21 21 21 20 20 19 19 18 18 17 17 17 17 17 17 16 16 16 16 16 16 17 17 17 17 17 17 17 17 17 16 16 16 16 16 16 16 16 16
21 21 21 21 21 21 21 21 20 20 19 19 18 17 17 17 17 17 16 16 16 16 16 16 16 16 16 16 16 16 17 17 17 16 16 16 16 16 16 16 16 16 16
21 21 21 21 20 20 21 21 20 20 19 19 19 18 17 17 17 17 17 16 16 16 16 16 16 16 16 16 16 16 16 16 17 16 16 16 15 15 15 15 15 15 16
20 20 20 20 19 19 19 20 20 20 19 19 19 19 18 18 18 17 17 17 16 16 16 16 16 16 16 16 16 16 16 16 16 16 16 16 15 15 15 15 15 15 15
20 19 19 19 18 18 18 19 19 19 19 19 19 19 19 18 18 18 17 17 16 16 16 16 16 16 16 15 16 16 16 16 16 16 16 15 15 15 15 15 15 15 15
18 18 18 18 18 17 17 17 18 18 19 19 19 19 19 19 18 18 17 16 16 16 16 16 15 15 15 15 15 15 16 16 15 15 15 15 14 14 15 15 14 15 15
18 18 18 17 17 17 17 16 16 17 17 17 17 18 18 19 18 18 17 16 16 16 16 16 15 15 15 15 15 15 15 15 16 15 15 15 14 14 14 14 14 15 15
16 17 17 17 17 17 16 16 15 15 15 15 16 17 17 18 18 18 17 16 16 15 15 15 15 15 15 15 14 15 15 16 15 15 15 15 14 14 14 14 14 14 15
16 16 17 16 17 17 16 15 14 14 14 14 15 15 15 16 15 15 16 15 15 15 15 15 15 15 15 15 14 14 15 15 15 16 15 15 15 14 14 14 14 14 14
16 16 15 15 15 15 15 15 14 14 13 13 13 13 14 14 14 14 13 14 14 14 14 14 14 14 14 14 14 14 14 14 14 15 15 15 14 14 14 14 14 14 14
16 16 16 16 16 15 15 14 14 14 13 13 12 12 12 13 13 13 13 13 14 14 14 14 14 14 14 14 13 13 13 14 14 14 15 15 14 14 14 14 14 14 14
15 15 15 15 15 15 15 15 14 14 13 13 12 12 12 12 12 12 13 13 14 14 14 14 14 14 13 13 13 13 13 13 13 13 14 14 14 14 14 14 14 13 13
14 14 15 15 15 15 15 15 14 14 13 12 12 12 11 11 11 12 12 12 13 13 13 13 13 14 14 14 13 13 13 13 12 13 14 14 14 14 14 14 14 13 13
14 14 14 14 14 14 13 13 13 13 13 12 12 11 11 11 11 11 12 12 12 13 13 13 13 13 13 13 13 13 13 13 12 13 13 13 14 13 13 13 13 13 13
14 14 14 13 13 13 12 12 12 12 12 12 11 11 11 11 11 11 11 12 12 12 12 12 12 12 12 12 12 12 12 12 12 12 12 12 13 13 13 13 12 12 12
14 14 13 13 12 12 12 11 11 11 12 11 11 11 11 11 11 11 11 11 11 11 11 11 11 11 11 12 11 11 12 12 12 12 11 11 12 12 12 12 12 12 11
14 13 13 13 12 11 11 11 11 11 11 11 11 11 11 11 11 11 11 11 11 11 11 11 11 11 11 11 10 10 10 11 12 12 12 12 11 11 11 11 12 12 12
13 13 12 12 11 10 10 10 10 10 11 11 11 11 11 11 11 10 10 10 10 11 11 11 11 10 10 10 10 10 10 10 11 11 11 11 11 11 11 11 11 12 12
13 12 11 11 11 10 10 10 10 9 9 10 10 10 10 10 10 10 10 10 10 10 10 10 10 9 9 9 9 9 9 9 9 9 10 10 11 11 11 11 11 10 11
12 11 11 11 10 10 10 9 9 9 9 9 9 9 9 9 9 9 9 9 9 9 9 9 9 9 9 8 8 8 9 9 8 8 8 8 9 9 9 9 10 10 10
12 11 10 10 10 10 9 9 9 9 9 9 9 9 9 9 9 9 9 9 9 9 9 9 9 9 8 8 8 8 8 8 7 7 8 8 9 9 8 8 8 9 9

GEFSSE_850_meantemp_006.txt.gz
Temperature
22 22 21 21 21 20 19 19 19 18 18 17 17 17 17 17 17 17 17 17 17 16 17 17 17 17 17 17 17 17 17 17 17 17 17 17 17 17 17 17 17 17 17
22 22 22 21 21 21 20 19 19 19 18 17 17 17 17 17 17 17 17 16 16 16 16 16 17 17 17 17 17 17 17 17 17 17 17 17 17 17 17 17 17 17 17
22 22 22 22 21 21 20 20 19 19 18 17 17 17 17 16 16 17 17 16 16 16 17 16 16 17 16 17 17 17 17 17 17 17 17 17 17 17 17 17 17 17 17
21 21 22 22 21 21 21 20 20 19 19 18 17 17 17 16 16 16 17 17 17 16 16 16 16 16 16 17 17 16 16 16 16 17 17 17 17 17 17 17 17 17 18
21 21 21 21 21 21 21 20 20 19 19 18 17 17 17 16 16 16 17 17 17 17 16 16 16 16 16 17 17 16 16 16 17 17 17 17 17 16 16 16 16 17 17
21 21 20 20 20 20 20 20 20 19 19 18 18 17 17 16 16 16 16 16 16 17 17 16 16 16 16 16 16 16 16 16 17 17 17 17 16 16 16 16 16 16 16
21 21 20 20 20 19 19 20 20 19 19 18 17 17 17 16 16 16 16 16 16 16 16 16 16 16 16 17 17 16 16 16 17 17 17 17 16 16 16 16 16 16 16
21 21 20 19 19 18 18 18 19 19 19 18 17 17 16 16 16 16 16 16 16 16 16 16 16 16 16 16 16 16 16 16 17 17 17 16 16 16 16 16 15 16 16
21 21 20 19 19 18 18 17 17 18 18 18 17 17 17 16 16 15 15 16 16 16 16 16 16 16 16 16 16 16 16 16 16 16 16 16 16 16 16 16 16 15 15
20 20 20 19 18 18 17 17 17 17 17 17 17 17 16 16 16 16 16 16 15 15 15 16 16 15 15 15 15 15 15 16 16 16 16 16 16 16 15 15 15 15 15
19 19 19 18 18 18 17 17 16 16 16 16 17 17 17 16 17 17 16 16 15 15 15 15 15 15 15 15 15 15 15 15 15 15 16 16 15 15 15 15 15 15 15
18 18 18 18 17 17 17 16 16 15 15 15 15 16 16 16 16 16 17 16 16 15 15 15 15 15 15 15 15 15 15 15 15 15 15 15 15 15 15 15 15 14 15
18 17 18 18 17 17 17 16 15 15 15 15 14 14 14 15 16 16 17 16 16 16 15 15 15 15 15 15 15 14 15 15 15 15 15 15 15 14 14 14 14 14 14
17 17 17 17 17 16 16 16 15 14 14 14 14 13 14 14 14 15 16 16 16 15 14 14 14 14 14 14 14 14 14 14 14 15 15 14 14 14 14 14 14 14 14
16 16 16 16 16 15 15 14 14 14 13 13 13 12 12 12 13 13 13 14 14 14 13 13 13 14 14 14 14 14 14 14 14 14 14 14 14 14 14 14 14 14 14
15 16 16 16 16 15 15 14 14 13 13 12 12 12 12 12 12 12 12 12 12 13 13 13 13 13 13 13 13 13 13 13 13 13 14 14 14 14 13 13 13 14 14
15 15 15 15 15 15 15 15 14 14 13 12 12 11 11 11 11 11 11 12 12 12 12 13 13 13 13 13 13 13 13 13 13 13 13 13 13 13 13 13 13 13 14
15 15 15 15 15 15 15 14 14 13 13 12 11 11 11 11 11 11 11 11 11 12 12 12 13 13 12 12 12 13 13 13 13 12 12 12 13 13 13 13 13 13 13
15 15 15 14 14 14 14 14 13 12 12 11 11 11 11 11 11 11 11 11 11 11 12 12 12 12 12 12 12 12 12 13 13 13 12 12 12 12 12 13 13 12 12
14 14 14 14 14 14 13 13 12 11 11 11 11 11 11 10 10 11 11 11 11 11 11 11 12 12 12 12 12 12 12 12 12 13 13 13 12 12 12 12 12 12 12
14 14 14 14 13 13 12 12 11 11 11 10 10 10 10 10 11 11 11 10 10 10 11 11 11 11 11 12 12 12 12 12 12 12 12 12 12 12 12 12 12 12 12
13 13 13 13 13 12 12 11 10 10 10 10 10 10 10 10 10 10 10 10 10 10 10 10 11 11 11 11 11 11 11 12 11 12 12 12 12 12 12 12 12 12 12
13 13 13 13 12 12 11 10 10 10 10 10 10 10 10 10 9 9 9 9 9 9 9 9 10 10 10 10 10 10 9 9 9 10 10 11 11 11 11 12 12 12 12
13 13 13 12 12 11 10 10 10 9 9 9 9 9 9 9 9 9 9 9 9 9 9 9 9 9 9 9 9 9 8 8 8 8 8 9 9 10 10 11 11 11 11
12 12 12 12 11 11 10 10 9 9 9 9 9 9 9 8 8 8 8 8 8 8 8 8 8 8 8 8 8 8 8 8 7 7 7 8 9 9 9 10 10 10 11
12 12 12 12 11 10 10 9 9 9 9 8 8 8 8 8 8 8 8 8 8 8 8 8 8 8 8 8 8 8 7 7 7 7 7 7 7 8 9 10 10 10 10

GEFSSE_850_meantemp_012.txt.gz
Temperature
22 22 22 21 21 20 20 19 19 19 19 18 18 17 17 17 17 17 17 16 16 17 17 17 17 17 17 17 17 17 17 17 17 17 17 17 17 17 17 17 17 16 17
22 22 22 21 21 20 20 19 19 19 18 18 17 17 17 17 17 17 16 16 17 17 17 17 17 17 17 17 17 17 17 17 17 17 17 17 17 17 17 17 17 16 17
22 22 22 21 21 21 20 20 19 19 18 18 17 17 16 16 16 16 16 16 17 17 17 17 17 17 17 17 17 17 17 17 17 17 17 16 16 17 17 17 17 17 17
22 22 22 21 21 21 21 20 19 19 18 18 17 16 16 16 16 16 16 16 16 16 16 16 16 16 16 16 17 17 17 17 17 17 16 16 16 17 17 17 17 17 17
21 22 21 21 21 21 21 20 19 19 18 18 16 16 16 16 16 16 16 16 16 16 16 16 16 16 16 16 16 17 17 17 17 17 16 16 16 17 17 17 17 17 17
21 21 21 21 21 20 20 20 19 19 18 18 16 16 16 16 16 16 16 16 16 16 16 16 16 16 16 16 16 16 17 17 16 16 15 16 15 16 17 17 16 16 16
20 21 21 21 20 20 19 19 19 19 18 18 16 15 16 16 16 16 16 16 16 16 16 16 16 16 16 16 16 16 17 16 16 15 16 15 15 16 16 16 16 16 16
21 21 21 20 20 19 19 19 18 18 18 17 16 16 15 16 16 15 15 15 15 16 16 16 16 16 16 16 16 16 16 16 16 16 16 15 16 16 16 16 16 16 16
21 21 20 20 20 19 18 18 18 18 18 17 17 16 15 15 15 15 15 15 15 15 16 16 16 16 16 16 16 15 15 16 15 15 15 15 16 16 16 16 16 16 15
21 21 20 20 19 18 18 17 17 17 17 17 16 16 16 15 15 15 14 14 15 15 15 16 16 16 16 15 15 15 15 15 15 15 15 15 16 16 16 16 16 15 15
20 20 20 19 19 18 17 16 17 16 16 16 15 15 16 15 14 14 14 15 15 15 16 16 15 15 15 15 15 15 15 14 14 15 15 15 16 16 16 15 16 16 15
19 19 19 19 19 18 17 16 16 15 15 15 14 14 13 13 13 13 14 16 16 16 16 16 16 15 15 15 15 15 15 14 14 14 15 15 16 16 15 15 15 15 15
19 19 19 19 18 18 17 16 16 15 15 14 14 14 13 13 13 13 14 15 16 16 16 16 16 15 14 14 15 15 15 15 14 14 14 15 15 15 15 15 15 15 15
18 18 18 18 18 18 17 16 16 15 14 14 14 14 13 13 13 13 13 13 14 14 15 15 15 14 14 14 14 15 15 15 14 14 14 15 15 15 15 15 15 15 15
17 17 17 17 17 17 17 16 16 15 14 14 14 14 13 13 12 12 12 12 12 12 13 14 14 14 14 14 14 14 14 14 14 14 14 14 14 15 15 15 15 15 15
16 16 16 16 16 17 16 16 15 15 14 14 13 13 13 12 12 12 12 12 12 12 12 12 13 13 13 14 14 14 14 14 13 13 13 13 14 14 14 14 14 14 14
15 15 16 16 16 16 16 16 15 15 15 14 13 13 12 12 12 11 11 12 12 12 12 12 12 13 13 13 14 14 14 14 13 13 13 13 13 13 14 14 14 13 13
14 15 15 15 15 15 15 15 14 14 14 13 13 12 12 11 11 11 11 11 11 11 12 12 12 13 13 13 13 13 13 13 13 13 13 13 13 13 13 13 13 13 13
14 14 14 14 14 15 15 15 14 13 13 12 12 11 11 11 11 11 11 11 11 11 12 12 12 12 12 13 13 13 13 13 13 13 13 13 13 13 13 13 13 13 13
12 13 13 13 14 14 14 14 14 13 12 11 11 11 11 11 11 11 11 11 11 11 11 12 12 12 12 12 12 12 12 12 12 12 12 12 12 13 13 13 13 13 13
12 12 12 13 13 13 13 13 13 12 12 11 10 10 10 10 10 10 10 10 10 11 11 11 11 11 11 12 12 12 12 12 12 12 12 12 12 12 13 13 13 12 13
11 11 11 12 12 13 13 13 13 12 11 10 10 10 10 10 10 10 10 10 10 10 10 10 10 10 11 11 11 11 11 11 10 11 12 12 11 11 11 12 12 12 12
11 10 11 11 12 12 12 12 12 11 10 10 10 10 10 10 10 10 10 9 9 9 9 9 9 9 9 10 10 10 11 12 11 10 10 10 10 10 10 11 11 11 11
11 11 10 10 11 11 12 12 11 10 10 10 9 9 9 9 9 9 9 9 9 9 9 9 9 9 9 9 9 9 9 10 10 10 9 9 10 10 10 10 10 10 10
9 10 9 9 10 10 11 11 10 10 10 9 9 9 9 9 9 9 9 8 8 8 8 8 8 8 8 8 8 8 8 8 9 9 9 9 9 9 9 9 9 9 9
7 7 8 8 9 9 9 10 10 10 10 9 9 9 8 8 8 8 8 8 8 8 8 8 8 8 8 8 7 7 7 7 7 8 8 8 8 8 8 8 9 8 9

GEFSSE_850_meantemp_018.txt.gz
Temperature
22 22 22 22 21 21 20 20 19 19 19 18 18 18 17 17 17 17 17 17 17 17 17 17 17 17 17 17 17 17 17 17 18 18 18 18 17 17 17 17 17 17 17
22 22 22 22 21 21 20 20 19 19 19 18 18 17 17 17 16 16 17 17 17 17 17 17 16 16 17 17 17 17 17 17 17 18 17 17 17 17 17 17 17 17 17
21 22 22 22 21 21 20 20 19 19 19 18 18 17 17 16 16 16 16 16 16 16 16 16 16 16 16 16 17 17 17 17 17 17 17 17 17 17 17 17 17 17 17
21 21 21 21 21 21 21 20 20 19 19 18 18 18 17 17 16 16 16 16 16 16 16 16 16 16 16 16 16 17 17 17 17 17 17 16 16 17 17 17 17 17 17
21 21 21 21 21 21 21 20 20 20 19 19 18 18 17 17 16 16 16 16 16 16 16 16 16 16 16 16 16 16 17 17 17 17 17 16 16 16 17 17 17 17 17
21 21 21 20 20 20 20 20 20 20 19 19 18 18 17 17 17 16 16 16 16 16 16 16 16 16 16 16 16 16 16 16 16 16 16 16 16 16 16 17 17 16 16
21 21 20 20 20 20 20 20 19 19 19 19 19 18 17 16 16 16 16 16 16 16 16 16 16 16 16 16 16 16 16 16 16 16 16 16 16 16 16 17 17 17 16
21 20 20 20 20 20 20 19 19 19 19 18 18 18 17 16 16 16 16 16 16 16 16 16 16 16 16 16 16 16 16 16 16 16 16 16 16 16 16 16 17 17 16
20 20 19 19 19 19 19 18 18 18 18 18 18 18 17 17 16 16 16 16 16 16 16 16 16 16 16 16 16 16 16 16 16 16 16 16 16 16 16 16 16 16 16
20 19 19 19 19 18 18 18 17 17 17 17 17 17 17 17 17 16 16 16 16 16 16 16 16 16 15 16 16 16 16 16 16 16 16 16 16 16 16 16 16 16 16
20 19 19 19 18 18 17 17 16 16 16 16 16 16 16 16 16 16 15 15 15 16 16 16 16 16 16 16 16 16 16 16 16 16 16 15 16 16 16 16 16 16 16
20 19 18 18 18 18 17 17 16 15 15 15 15 15 15 15 15 14 14 14 14 15 15 16 16 16 16 16 16 16 16 16 16 15 15 15 15 15 16 16 16 16 16
19 19 18 17 17 17 17 16 16 16 15 15 15 15 15 14 14 14 14 14 14 14 15 16 17 17 17 16 16 15 15 15 15 15 15 15 15 15 15 15 16 16 15
19 18 17 16 16 16 16 16 16 16 15 15 15 15 15 14 14 14 14 14 14 14 14 14 15 16 16 16 15 15 15 15 15 15 15 15 15 15 15 15 15 15 15
18 17 16 16 15 15 15 15 15 15 15 15 15 15 14 14 14 14 14 13 13 13 13 13 13 14 15 15 15 15 15 15 15 15 15 15 15 15 15 15 15 15 15
18 17 16 16 15 15 15 15 15 15 15 15 14 14 14 14 14 14 13 13 13 13 13 13 13 13 14 14 15 15 15 15 15 15 14 14 14 15 15 15 15 15 15
16 16 16 15 15 14 14 14 15 15 15 15 14 14 14 14 13 13 13 13 13 13 12 12 12 13 13 14 14 14 14 14 15 14 14 14 14 14 14 15 15 15 15
15 15 15 14 14 14 14 14 14 14 14 14 14 14 14 13 13 13 12 12 12 12 12 12 12 12 13 13 14 14 14 14 14 14 14 14 14 14 14 14 14 14 14
13 13 13 13 13 13 13 13 13 13 13 13 13 13 13 13 13 12 12 12 12 12 12 12 12 12 12 13 13 13 13 13 14 14 14 14 13 13 13 14 14 14 14
12 12 12 12 12 12 12 12 12 13 13 13 13 13 12 12 12 12 12 12 12 12 12 12 12 12 12 12 12 12 13 13 13 13 13 13 13 13 13 13 13 13 13
10 11 11 12 12 12 12 12 12 12 12 12 12 12 12 12 11 11 11 11 11 11 11 11 11 11 11 11 12 12 12 12 12 13 13 13 13 13 13 12 12 13 13
8 8 8 9 10 10 10 11 11 11 11 11 11 12 12 11 11 11 11 11 11 11 11 11 10 10 10 11 11 11 11 12 12 12 12 12 12 12 12 12 12 12 12
7 7 7 7 7 8 8 9 9 10 10 10 11 11 11 11 10 10 10 10 10 10 10 10 10 10 10 10 10 10 10 11 11 11 11 11 11 11 11 11 11 11 11
7 6 6 6 6 7 7 7 8 8 9 9 10 10 11 10 10 9 9 9 10 10 9 9 9 9 9 9 9 9 10 10 10 10 10 10 10 10 10 10 10 10 10
7 6 6 6 6 6 6 6 7 7 8 8 9 10 10 10 10 9 9 9 9 9 9 9 9 9 9 9 9 9 9 9 10 10 10 10 10 10 10 9 9 9 9
6 6 6 6 5 5 5 5 5 6 7 7 8 9 9 10 9 9 9 8 8 8 8 8 8 8 8 8 8 8 8 8 8 9 9 9 9 9 9 9 9 9 9

GEFSSE_850_meantemp_024.txt.gz
Temperature
21 21 21 21 20 20 19 19 19 19 18 18 17 17 17 17 17 17 17 17 17 17 17 17 17 17 17 17 17 17 17 17 17 17 17 17 17 17 17 17 17 17 18
21 21 21 21 21 21 20 20 19 19 18 18 18 17 17 17 17 17 17 17 17 17 17 17 17 17 17 17 17 17 17 17 17 17 17 17 17 17 17 17 17 17 17
21 22 22 21 21 21 21 20 20 19 19 18 18 17 17 16 16 16 16 16 17 17 17 17 17 17 17 17 17 17 17 17 17 17 17 17 17 16 17 17 17 17 17
22 22 21 21 21 21 21 21 20 20 19 18 18 17 16 16 16 16 16 16 16 16 16 16 16 16 17 17 17 17 17 17 16 16 16 16 16 16 16 17 17 17 17
21 21 21 21 21 21 20 20 20 20 19 18 18 17 16 15 15 15 16 16 16 16 16 16 16 16 16 16 17 17 17 17 16 16 16 16 16 16 16 17 17 17 17
21 21 20 20 20 20 20 19 19 19 19 18 18 17 16 15 15 15 15 15 16 16 16 16 16 16 16 16 16 16 17 17 16 16 16 16 17 16 16 17 17 17 17
21 20 19 19 19 19 19 19 18 18 18 18 18 17 16 15 15 15 15 15 15 15 15 16 16 16 16 16 16 16 16 16 16 16 16 16 16 16 16 16 17 17 17
20 19 19 19 18 18 18 18 17 17 17 17 17 17 17 16 15 15 15 15 15 15 15 15 15 16 16 16 16 16 16 16 16 16 16 16 16 16 16 16 17 17 17
19 19 18 18 18 17 17 17 16 16 16 16 16 16 16 16 15 15 15 15 15 15 15 15 15 15 15 15 16 16 16 16 16 16 16 16 16 16 16 16 16 17 17
18 18 18 18 17 17 16 16 15 15 15 15 15 15 16 16 15 15 15 15 15 14 14 14 14 14 15 15 15 16 16 16 16 16 16 16 16 16 16 16 16 17 17
18 18 17 17 17 17 16 16 15 15 15 15 15 15 15 15 15 15 15 14 14 14 14 14 14 14 14 14 15 15 15 16 16 16 16 16 16 16 16 16 16 16 16
17 17 17 17 16 16 16 15 15 15 15 15 14 14 14 14 14 14 14 14 14 14 14 14 14 14 14 15 15 15 15 15 16 16 16 15 15 16 15 15 16 16 16
16 15 15 15 15 15 15 15 14 14 14 14 14 14 14 14 14 14 14 14 14 14 14 13 13 13 14 15 15 15 15 15 15 16 15 15 15 15 15 15 15 16 16
14 14 14 14 14 14 14 14 14 14 14 14 14 14 14 14 14 14 14 14 13 13 13 13 13 13 13 14 14 15 15 15 15 15 15 15 15 15 15 15 15 15 16
13 13 13 14 14 14 14 14 14 14 14 14 14 14 14 14 14 13 13 13 13 13 13 13 13 13 13 13 13 14 14 14 14 14 15 15 15 15 15 15 15 15 15
12 12 13 13 13 13 13 13 13 13 14 14 14 14 14 14 14 13 13 13 13 13 13 13 13 13 13 13 13 13 13 14 14 14 14 15 15 15 15 15 15 15 15
11 11 12 12 12 13 13 13 13 13 13 13 13 13 13 13 13 13 13 13 13 12 12 12 12 12 12 12 12 12 13 13 14 14 14 14 14 14 14 14 14 14 15
9 10 10 11 11 12 12 12 12 12 12 13 13 13 13 13 13 13 13 13 13 12 12 12 12 12 12 12 12 12 12 13 13 14 14 14 14 14 14 14 14 14 14
8 8 8 9 9 10 10 11 12 12 12 12 12 12 12 12 12 12 12 12 12 12 12 12 12 12 12 12 12 12 12 12 13 13 13 13 14 14 13 13 14 14 14
7 7 7 7 7 7 8 9 9 10 11 11 11 11 11 11 11 11 11 11 12 12 11 11 11 11 11 11 11 12 12 12 12 12 13 13 13 13 13 13 13 13 13
6 6 6 6 6 6 6 6 7 7 7 8 9 10 10 10 10 10 10 10 11 11 11 11 11 11 11 11 11 11 12 12 12 12 12 12 13 13 13 13 13 13 13
6 5 5 5 5 5 4 4 4 5 5 6 7 8 8 9 9 9 10 10 10 10 10 10 10 11 11 11 10 10 11 11 12 12 12 12 12 12 12 12 12 12 12
5 4 4 4 4 4 4 3 3 4 4 4 5 6 7 8 8 9 9 9 10 10 10 10 10 10 10 10 10 10 10 10 11 11 12 12 12 12 12 12 12 12 12
3 3 3 3 3 3 3 3 3 3 3 3 3 4 5 6 7 8 8 9 9 9 9 9 9 10 10 9 9 9 9 10 10 10 10 11 11 11 11 11 12 12 12
3 2 2 2 2 2 2 2 2 2 2 2 2 3 4 5 6 6 7 8 8 9 9 9 9 9 9 9 9 9 9 9 9 10 9 9 10 10 10 10 11 11 11
2 1 1 1 1 1 1 1 1 1 1 1 2 2 2 3 4 5 6 7 7 8 8 8 8 8 9 9 8 8 8 8 9 9 9 9 9 9 9 9 10 10 10

GEFSSE_850_meantemp_030.txt.gz
Temperature
21 21 20 20 20 19 19 18 18 18 18 17 17 16 16 16 16 16 16 16 16 16 16 16 16 17 17 17 17 17 17 17 17 17 17 16 16 17 16 17 17 17 17
21 21 21 20 20 19 19 18 18 18 18 17 17 16 16 16 16 16 16 16 16 16 16 16 16 16 16 16 16 16 16 17 17 17 17 16 16 16 16 16 17 17 17
21 20 20 20 19 19 19 18 18 18 18 17 17 17 16 16 16 16 16 16 16 16 16 16 16 16 16 16 16 16 16 16 17 17 17 17 16 16 17 16 17 17 17
20 20 19 19 19 19 18 18 18 18 17 17 17 16 16 16 15 15 15 16 16 16 16 16 16 16 16 16 16 16 16 16 16 16 16 16 17 17 17 17 17 17 17
19 19 18 18 18 18 18 18 17 17 17 17 16 16 16 15 15 15 15 15 15 15 16 16 16 16 16 16 16 16 16 16 16 16 16 16 16 17 17 17 17 17 17
18 18 18 17 17 17 17 17 17 16 16 16 16 16 16 15 15 15 15 15 15 15 15 15 15 16 16 16 16 16 16 16 16 16 16 16 16 16 16 17 17 17 17
17 17 17 17 17 16 16 16 16 16 16 16 16 15 15 15 15 15 15 15 15 15 15 15 15 15 15 15 16 16 16 15 15 16 16 16 16 16 16 16 16 17 17
16 16 16 16 16 16 16 16 15 15 15 15 15 15 15 15 14 14 14 14 15 15 15 15 15 15 15 15 15 15 15 15 15 15 15 16 16 16 16 16 16 16 17
16 16 16 16 15 15 15 15 15 15 15 14 14 14 14 14 14 14 14 14 14 14 15 15 15 15 15 15 15 15 15 15 15 15 15 15 16 16 16 16 16 16 16
15 15 15 15 15 15 14 14 14 14 14 14 14 14 14 14 14 14 14 14 14 14 14 14 14 14 14 15 15 15 15 15 15 15 15 15 15 15 16 16 16 16 16
13 13 13 14 14 14 14 14 13 13 13 13 13 14 14 14 14 14 14 14 14 14 14 14 14 14 14 14 14 14 15 15 15 15 15 15 15 15 15 16 16 16 16
12 12 12 13 13 13 13 13 13 13 13 13 13 13 13 13 13 13 13 13 13 13 13 13 14 13 13 13 14 14 14 14 15 15 15 15 15 15 15 15 15 16 16
10 11 11 12 12 12 13 13 13 13 13 13 13 13 13 13 13 13 13 13 13 13 13 13 13 13 13 13 13 13 14 14 15 15 15 14 15 15 15 15 15 15 15
10 10 10 11 11 12 12 12 12 12 13 13 12 12 13 13 13 13 13 13 13 13 13 13 13 13 13 13 13 13 13 14 14 15 15 15 14 15 14 15 15 15 15
9 9 9 10 10 11 11 11 11 12 12 12 12 12 12 12 12 13 13 13 13 13 13 13 12 12 12 12 12 12 13 13 13 14 14 15 14 14 14 14 15 15 15
7 8 8 9 9 10 10 10 10 11 11 11 12 12 12 12 12 12 13 13 13 13 12 12 12 12 12 12 12 12 12 12 13 13 13 14 14 14 14 14 14 15 15
6 7 7 8 8 8 9 9 9 10 10 11 11 11 11 12 12 12 12 12 12 12 12 12 12 12 12 12 12 12 12 12 12 12 13 13 14 14 14 14 14 14 15
6 6 6 7 7 7 7 7 7 8 8 9 9 10 10 11 11 11 11 11 12 12 12 12 12 12 12 12 12 12 12 12 12 12 12 13 13 14 14 14 14 14 14
5 5 5 6 6 6 6 6 6 6 6 6 7 7 8 9 9 9 10 10 11 11 11 11 11 11 11 11 11 11 11 11 11 12 12 12 13 13 13 14 14 14 14
4 4 4 4 4 4 5 5 5 5 4 4 4 5 5 6 6 7 8 8 9 9 10 10 10 11 11 11 11 11 11 11 11 11 12 12 12 13 13 13 14 14 13
4 4 3 3 3 3 3 3 3 3 2 3 3 3 3 4 4 5 5 6 7 8 8 9 9 10 10 10 10 10 10 11 11 11 11 12 12 12 13 13 13 13 13
2 2 2 2 1 1 0 0 0 0 1 1 1 2 2 3 3 3 3 4 5 6 7 8 8 9 9 9 9 9 10 10 10 11 11 11 12 12 12 13 13 13 13
1 1 0 0 -0 -1 -1 -1 -1 -1 -1 -0 0 1 1 2 2 2 3 3 3 4 5 6 7 8 8 9 9 9 9 9 10 10 11 11 12 12 12 12 13 13 13
-1 -1 -1 -1 -1 -2 -2 -2 -3 -3 -3 -3 -2 -1 0 1 1 1 2 2 2 3 3 4 6 6 7 8 8 9 9 9 9 10 10 10 11 11 12 12 12 12 12
-2 -2 -2 -2 -2 -3 -3 -3 -4 -4 -4 -4 -4 -3 -2 -1 -0 0 0 1 1 2 2 3 4 5 6 6 7 8 8 8 9 9 9 9 10 10 11 11 11 12 12
-3 -3 -4 -4 -4 -4 -4 -4 -5 -5 -5 -5 -5 -4 -4 -4 -3 -2 -1 -1 -0 0 1 2 3 4 5 5 6 6 7 8 8 8 9 9 9 10 10 10 11 11 11

GEFSSE_850_meantemp_036.txt.gz
Temperature
16 16 17 16 16 16 16 16 16 16 16 16 16 16 16 16 16 16 16 16 16 16 16 16 16 16 17 17 17 17 17 17 17 17 17 17 17 17 17 17 17 17 17
15 15 16 16 16 16 16 16 16 16 16 16 16 16 15 15 16 16 16 16 16 16 16 16 16 16 16 16 16 16 17 17 17 17 17 17 17 17 17 17 17 16 17
15 14 15 15 15 15 15 15 16 16 16 16 16 16 15 15 15 15 16 16 16 16 16 16 16 16 16 16 16 16 16 16 17 17 17 16 16 17 17 17 17 17 17
14 14 14 15 15 15 15 15 15 15 15 16 16 16 16 15 15 15 15 15 15 15 15 16 16 16 16 16 16 16 16 16 16 17 16 16 16 16 17 16 17 17 17
14 14 14 14 14 14 14 14 14 14 14 15 15 15 15 15 15 15 15 15 15 15 15 15 15 16 16 16 16 16 16 16 16 16 15 15 16 16 17 17 17 17 17
14 14 14 14 14 14 14 14 14 14 14 14 14 14 14 15 15 15 15 15 15 15 15 15 15 15 15 15 15 15 15 15 15 15 15 15 15 16 17 17 17 17 17
13 13 13 14 14 14 14 14 14 14 14 14 14 14 14 14 14 14 14 14 15 15 15 15 15 15 15 15 15 15 15 15 15 15 15 15 15 16 16 17 17 17 17
12 13 13 13 13 14 14 14 14 14 14 14 14 14 14 14 14 14 14 14 14 14 14 15 15 15 15 15 15 15 15 15 15 14 15 15 15 16 16 16 16 17 17
12 12 12 12 12 12 13 13 13 13 13 13 13 14 14 14 14 14 14 14 14 14 14 14 14 14 14 14 15 15 15 15 14 15 14 15 15 16 16 16 16 16 17
11 11 11 12 12 12 12 12 12 12 13 13 13 13 13 13 13 13 13 13 14 14 14 14 14 14 14 14 14 14 14 14 14 14 15 15 15 16 15 15 15 16 16
10 10 11 11 11 12 12 12 12 12 12 13 13 13 13 13 13 13 13 13 13 13 13 14 14 14 14 14 14 14 14 14 14 14 14 14 15 15 15 15 15 15 16
9 9 10 10 11 11 11 11 12 12 12 12 12 12 12 12 12 13 13 13 13 13 13 13 13 13 13 13 13 14 13 13 14 14 14 14 15 15 15 15 15 15 15
8 9 9 10 10 10 10 11 11 11 11 12 12 12 12 12 12 12 12 13 13 13 13 13 13 13 13 13 13 13 13 13 13 13 14 14 15 15 15 15 15 15 15
8 8 9 9 9 10 10 10 10 10 10 11 11 11 11 12 12 12 12 12 12 12 13 13 13 13 13 13 13 13 13 13 13 13 13 14 15 14 14 15 15 15 15
7 8 8 8 8 9 9 9 9 9 9 9 9 9 10 10 10 11 11 11 12 12 12 12 12 12 12 12 12 12 13 13 13 13 13 13 14 14 14 14 15 15 15
6 6 7 7 7 7 7 7 7 6 6 6 6 6 7 7 8 9 9 10 10 11 11 11 11 12 12 12 12 12 12 13 13 13 12 12 13 14 14 14 14 15 15
4 5 5 5 6 5 5 5 4 4 3 3 3 3 3 4 5 5 6 7 8 9 10 10 10 11 11 11 11 11 12 12 12 12 12 12 12 13 13 14 14 14 15
3 3 3 3 4 3 3 3 2 2 1 1 1 1 1 2 2 3 4 4 5 6 7 8 8 9 10 10 10 11 11 11 12 12 12 12 12 12 13 13 14 14 14
2 2 2 2 2 2 2 1 0 -0 -0 -0 -0 -0 0 0 1 1 2 2 3 3 4 5 6 7 8 9 9 10 10 11 11 11 11 12 12 12 12 13 13 14 14
1 1 0 0 0 0 0 -0 -0 -1 -1 -1 -1 -1 -1 -1 -1 -0 -0 1 1 2 2 3 4 5 6 7 8 9 9 10 10 11 11 11 12 12 12 12 13 13 13
-0 -0 -1 -1 -1 -1 -1 -2 -2 -2 -2 -2 -2 -2 -2 -2 -2 -2 -2 -1 -0 0 1 1 2 3 4 5 6 8 9 10 10 10 10 11 11 11 12 12 12 12 12
-2 -2 -2 -2 -2 -3 -3 -3 -4 -4 -4 -4 -3 -3 -3 -3 -3 -3 -3 -3 -2 -2 -1 -0 0 1 2 3 4 6 8 10 10 10 10 10 11 11 11 12 12 12 13
-3 -3 -3 -3 -4 -4 -4 -4 -4 -4 -5 -5 -5 -4 -3 -4 -4 -4 -4 -4 -4 -3 -3 -2 -1 -0 0 1 2 4 6 9 10 11 10 10 10 11 11 11 12 12 12
-4 -4 -4 -4 -5 -5 -5 -6 -6 -6 -6 -6 -6 -6 -5 -5 -5 -5 -5 -5 -5 -4 -4 -3 -2 -1 -0 0 1 2 4 5 7 9 10 10 10 10 10 11 11 12 12
-4 -5 -5 -5 -6 -6 -6 -7 -7 -7 -7 -7 -7 -7 -6 -6 -6 -6 -6 -6 -5 -5 -4 -4 -3 -2 -1 -0 1 1 2 4 5 6 8 9 10 9 10 10 10 11 11
-5 -6 -6 -6 -7 -7 -7 -7 -8 -8 -8 -8 -8 -8 -7 -7 -7 -7 -6 -6 -6 -6 -5 -4 -4 -3 -2 -1 -0 1 1 2 4 5 6 8 9 9 9 9 9 10 11

GEFSSE_850_meantemp_042.txt.gz
Temperature
13 13 14 14 15 15 15 15 15 15 15 15 15 15 15 15 15 15 15 15 15 15 15 16 16 16 16 16 16 17 17 17 17 17 17 17 17 17 17 17 17 16 17
12 13 14 14 14 14 15 15 15 15 15 15 15 15 15 15 15 15 15 15 15 15 15 15 15 16 16 16 16 16 16 17 17 17 17 17 17 17 17 17 17 16 16
12 13 13 13 14 14 14 14 14 15 15 15 15 15 15 15 15 15 15 15 15 15 15 15 15 15 16 16 16 16 16 16 17 17 17 17 16 17 17 17 17 17 17
11 12 13 13 13 14 14 14 14 14 15 15 15 15 15 15 15 15 15 15 15 15 15 15 15 15 15 15 16 16 16 16 16 17 17 16 16 16 17 17 17 17 17
11 11 12 13 13 13 14 14 14 14 14 14 14 14 14 14 14 14 14 14 14 15 14 15 15 15 15 15 15 15 16 16 16 16 16 16 16 16 16 17 17 17 17
10 10 11 12 12 13 13 13 13 13 14 14 14 14 14 14 14 14 14 14 14 14 14 14 14 15 15 15 15 15 15 16 16 16 16 16 15 16 16 16 17 17 17
10 10 11 11 12 12 12 12 13 13 13 13 13 13 13 14 14 14 14 14 14 14 14 14 14 14 14 15 15 15 15 15 15 16 16 16 15 16 16 16 17 17 17
10 10 11 11 12 12 12 12 12 12 12 12 13 13 13 13 13 13 13 13 14 14 14 14 14 14 14 14 15 15 15 15 15 15 15 15 15 16 16 16 17 17 17
10 10 11 11 11 11 11 11 12 12 12 12 12 12 12 12 12 12 13 13 13 13 13 13 14 14 14 14 14 14 15 15 15 15 15 15 15 16 16 16 16 16 17
9 10 10 10 11 11 11 11 11 11 11 11 11 12 12 12 12 12 12 12 12 12 13 13 13 13 13 14 14 14 14 14 15 15 15 15 15 15 16 16 16 16 16
9 9 10 10 10 10 10 10 10 10 10 10 10 11 11 11 12 11 12 12 12 12 12 12 12 13 13 13 13 13 14 14 14 15 15 15 15 15 15 15 16 16 16
8 8 8 9 9 9 9 9 9 8 8 8 8 8 9 9 10 10 11 11 11 12 12 12 12 12 12 13 13 13 13 14 14 14 14 15 15 15 15 15 15 16 16
6 7 7 7 8 8 8 8 7 6 6 6 5 5 6 7 7 8 9 9 10 10 11 11 12 12 12 12 12 13 13 13 13 14 14 14 15 15 15 15 15 15 16
6 6 6 6 6 6 6 6 5 4 4 3 3 3 3 4 5 5 6 6 7 7 8 9 10 11 11 12 12 12 12 13 13 13 14 14 14 14 14 15 15 15 15
5 5 5 5 4 4 4 4 3 2 2 2 2 2 2 2 2 3 4 4 4 4 6 7 8 9 10 11 11 12 12 12 13 13 13 13 14 14 14 14 15 15 15
4 4 3 3 3 3 3 2 1 1 1 1 1 0 0 1 1 1 2 2 2 3 4 4 5 6 7 9 10 10 11 12 12 12 13 13 13 13 13 14 14 15 15
3 2 2 2 2 2 2 1 1 0 -0 -0 -0 -1 -1 -1 -1 -1 -0 0 0 1 2 2 3 4 5 6 8 9 10 11 11 12 12 13 13 13 13 13 14 14 15
2 2 1 1 1 1 1 0 0 -1 -1 -1 -2 -2 -2 -2 -2 -2 -2 -2 -1 -1 -0 0 1 2 3 5 6 8 9 10 11 11 12 12 12 12 12 12 13 13 14
1 1 0 0 -0 -0 -0 -0 -1 -1 -2 -2 -3 -3 -3 -3 -3 -3 -3 -3 -3 -2 -2 -2 -1 -0 1 2 4 5 7 9 10 10 11 11 12 12 12 12 12 12 13
0 0 -0 -1 -1 -1 -1 -1 -2 -2 -3 -4 -4 -4 -4 -4 -4 -4 -4 -4 -4 -4 -3 -3 -3 -2 -1 -0 1 3 5 7 9 10 11 11 11 12 12 12 12 12 12
-0 -1 -1 -2 -2 -3 -3 -3 -3 -4 -4 -4 -4 -5 -5 -5 -5 -5 -5 -5 -5 -5 -5 -4 -4 -3 -3 -2 -0 1 4 6 8 9 10 10 11 11 11 11 12 12 12
-1 -2 -2 -3 -4 -4 -4 -5 -5 -5 -5 -5 -5 -6 -6 -6 -6 -6 -6 -6 -6 -6 -5 -5 -5 -4 -3 -3 -2 -1 1 4 7 8 9 9 10 10 11 11 11 11 12
-2 -2 -3 -4 -5 -5 -5 -6 -6 -6 -6 -6 -6 -6 -6 -6 -6 -6 -7 -7 -6 -6 -6 -6 -5 -5 -4 -3 -2 -1 0 2 2 7 8 8 9 10 10 11 11 11 11
-2 -3 -4 -5 -5 -6 -6 -6 -7 -7 -7 -7 -7 -7 -7 -7 -7 -7 -7 -7 -7 -7 -6 -6 -6 -5 -5 -4 -3 -2 -1 -0 0 2 6 7 7 8 9 10 10 10 11
-3 -4 -4 -5 -6 -6 -7 -7 -7 -8 -8 -8 -8 -8 -8 -8 -8 -8 -8 -8 -8 -8 -7 -7 -7 -6 -5 -5 -4 -3 -2 -1 -0 1 2 4 6 7 8 9 10 10 10
-3 -4 -5 -6 -6 -7 -7 -7 -8 -8 -8 -8 -8 -8 -8 -8 -8 -9 -9 -9 -9 -8 -8 -8 -7 -7 -6 -5 -5 -4 -3 -2 -1 -0 1 2 3 5 7 8 9 9 10

GEFSSE_850_meantemp_048.txt.gz
Temperature
10 11 11 12 13 13 13 13 14 14 14 14 14 14 14 14 14 14 14 15 15 15 15 15 15 15 16 16 16 16 16 16 16 16 16 16 16 16 17 17 17 17 17
10 10 11 11 12 12 13 13 13 13 13 14 14 14 14 14 14 14 14 14 14 14 15 15 15 15 15 16 16 16 16 16 16 16 16 16 16 16 16 17 17 17 17
10 10 10 11 11 12 12 12 13 13 13 13 13 13 13 13 13 13 14 14 14 14 14 14 14 15 15 15 15 16 16 16 16 16 16 16 16 16 16 16 16 17 17
10 10 10 11 11 11 11 12 12 12 12 12 13 13 13 13 13 13 13 13 13 14 14 14 14 14 14 15 15 15 16 16 16 16 16 16 16 16 16 16 16 16 17
10 10 10 11 11 11 11 11 11 12 12 12 12 12 12 12 12 12 12 13 13 13 13 13 14 14 14 14 14 15 15 15 16 16 16 16 16 16 16 16 16 16 17
10 10 10 10 11 11 11 11 11 11 11 11 11 12 12 12 12 12 12 12 12 12 13 13 13 13 13 14 14 14 14 15 15 15 15 15 15 16 16 16 16 16 16
9 10 10 10 10 10 10 10 10 10 10 10 11 11 11 11 11 11 11 12 12 12 12 12 12 13 13 13 13 14 14 14 14 15 15 15 15 15 16 16 16 16 16
9 9 10 10 10 10 10 10 10 9 9 9 9 10 10 10 10 10 11 11 11 11 11 11 12 12 12 13 13 13 13 14 14 14 15 15 15 15 15 16 16 16 16
9 9 9 9 9 9 9 9 9 8 8 8 8 8 8 9 9 9 9 10 10 10 10 11 11 11 12 12 12 13 13 13 13 14 14 15 15 15 15 16 16 16 16
8 8 8 8 8 8 8 7 7 7 6 6 6 6 6 6 7 7 7 8 8 8 9 10 10 11 11 12 12 12 13 13 13 13 14 14 15 15 15 15 15 15 16
7 7 7 7 7 6 6 6 6 5 5 4 4 4 4 5 5 5 5 6 6 7 7 8 9 10 10 11 11 11 12 12 13 13 13 14 14 14 14 15 15 15 15
6 6 6 5 5 5 5 4 4 4 3 3 2 2 2 3 3 3 4 4 4 5 6 6 7 8 9 10 11 11 11 12 12 12 13 13 14 14 14 14 15 15 15
5 4 4 4 4 3 3 3 2 2 2 1 1 0 1 1 1 2 2 3 3 3 4 5 6 6 7 8 9 10 11 11 11 12 12 13 13 13 14 14 14 15 15
4 3 3 2 2 2 2 2 1 1 0 -0 -1 -1 -1 -1 -0 0 1 1 1 1 2 3 3 4 5 6 7 9 10 10 11 11 12 12 12 13 13 14 14 14 15
3 2 2 2 1 1 1 1 0 0 -0 -1 -2 -2 -2 -2 -2 -2 -1 -1 -1 -0 0 1 2 2 3 4 6 7 8 9 10 10 11 12 12 12 13 13 14 14 14
3 2 1 1 1 1 1 0 -0 -1 -1 -2 -2 -3 -3 -3 -3 -3 -3 -3 -2 -2 -2 -1 -1 0 1 2 4 5 6 8 9 10 10 11 12 12 12 13 13 13 14
3 2 1 1 0 0 -0 -1 -1 -2 -2 -3 -3 -4 -4 -4 -4 -5 -4 -4 -4 -4 -3 -3 -2 -2 -0 1 2 4 5 6 8 9 10 10 11 11 12 12 12 13 13
2 2 1 0 -0 -0 -1 -1 -2 -2 -3 -3 -4 -4 -4 -5 -5 -5 -5 -6 -5 -5 -5 -4 -4 -4 -3 -1 0 2 3 5 6 8 9 9 10 11 11 12 12 12 13
2 1 0 -0 -1 -1 -1 -2 -2 -2 -3 -4 -4 -5 -5 -5 -6 -6 -6 -6 -6 -6 -6 -6 -6 -5 -5 -4 -2 0 2 4 5 6 7 8 9 10 10 11 11 12 12
1 1 -0 -1 -1 -2 -2 -2 -2 -3 -3 -4 -5 -5 -6 -6 -6 -7 -7 -7 -7 -6 -6 -6 -6 -6 -6 -5 -4 -2 1 2 3 4 5 6 8 9 9 10 11 11 11
1 -0 -1 -2 -3 -3 -3 -3 -3 -4 -4 -5 -5 -6 -6 -6 -7 -7 -8 -7 -7 -7 -7 -7 -7 -7 -6 -6 -5 -4 -0 1 2 2 3 4 5 7 8 9 10 10 11
-0 -2 -2 -3 -3 -4 -4 -4 -5 -5 -5 -6 -6 -6 -7 -7 -8 -8 -8 -8 -8 -8 -8 -8 -8 -8 -7 -7 -6 -5 -4 -1 1 2 2 3 4 5 6 8 9 9 10
-1 -2 -3 -3 -4 -4 -5 -5 -5 -5 -5 -5 -6 -7 -7 -8 -8 -9 -9 -9 -9 -9 -9 -9 -9 -9 -8 -7 -7 -6 -5 -3 -4 -0 1 1 2 3 5 6 7 8 9
-2 -3 -3 -4 -4 -5 -5 -6 -6 -6 -7 -7 -8 -8 -8 -8 -9 -9 -9 -9 -9 -9 -9 -9 -9 -9 -9 -8 -7 -7 -6 -5 -5 -3 -2 -1 0 1 3 4 6 7 8
-2 -3 -4 -4 -4 -5 -6 -6 -7 -7 -8 -8 -8 -8 -9 -9 -9 -10 -10 -10 -10 -10 -10 -10 -10 -9 -9 -9 -8 -8 -7 -6 -5 -4 -4 -3 -1 0 2 3 4 6 7
-3 -3 -4 -4 -5 -6 -6 -7 -7 -8 -8 -8 -9 -9 -10 -10 -10 -10 -11 -11 -11 -11 -10 -10 -10 -10 -9 -9 -9 -8 -7 -7 -6 -5 -4 -4 -3 -2 0 2 3 4 6

GEFSSE_850_meantemp_054.txt.gz
Temperature
8 9 9 9 9 10 10 10 11 11 12 12 12 13 13 13 13 13 13 13 14 14 14 14 14 14 14 14 15 15 15 15 15 15 16 16 16 16 16 16 17 17 17
8 9 9 9 10 10 10 10 11 11 11 12 12 12 12 12 12 13 13 13 13 13 13 13 14 14 14 14 14 14 15 15 15 15 15 15 16 16 16 16 16 16 16
8 9 10 10 10 10 10 10 10 10 11 11 11 11 12 12 12 12 12 13 13 13 13 13 13 13 14 14 14 14 14 14 15 15 15 15 15 15 16 16 16 16 16
8 9 9 9 9 10 10 10 10 10 10 10 10 11 11 11 11 11 12 12 12 12 12 12 12 13 13 13 14 14 14 14 14 15 15 15 15 15 15 16 16 16 16
9 9 9 9 9 9 9 9 9 9 9 9 9 9 9 10 10 10 11 11 11 11 11 11 12 12 12 13 13 13 13 14 14 14 14 15 15 15 15 15 16 16 16
9 9 9 9 9 9 9 9 9 8 8 8 8 8 8 8 8 8 9 9 9 10 10 10 11 11 11 12 12 13 13 13 14 14 14 14 15 15 15 15 15 16 16
8 8 9 9 8 8 8 8 7 7 7 7 7 7 7 7 7 7 7 7 7 8 8 9 9 10 10 11 12 12 13 13 13 13 14 14 14 14 15 15 15 15 16
8 8 8 8 8 8 7 7 6 6 6 5 5 5 5 6 6 5 6 6 6 6 6 7 8 8 9 10 11 11 12 12 13 13 13 13 14 14 14 15 15 15 15
8 8 8 7 7 7 6 6 5 5 4 4 4 4 4 4 5 4 5 5 5 5 5 5 6 7 7 8 9 10 11 11 12 12 13 13 13 13 14 14 14 15 15
7 7 7 6 6 5 5 5 4 4 3 3 3 3 3 3 3 3 4 4 4 4 4 4 5 5 6 7 8 9 9 10 11 11 12 12 13 13 13 14 14 14 15
7 6 6 5 5 4 4 3 3 3 3 2 2 2 2 2 2 2 2 2 3 3 3 4 4 4 5 6 7 7 8 9 10 10 11 11 12 12 13 13 14 14 14
5 5 4 4 3 3 3 3 2 2 2 1 1 1 1 1 1 1 1 1 2 2 2 3 3 3 4 5 5 6 7 8 9 9 10 11 11 12 12 13 13 14 14
4 4 3 3 2 2 2 2 2 1 1 1 1 0 0 0 0 1 1 1 1 1 1 2 2 2 3 3 4 5 5 6 7 8 9 10 10 11 12 12 12 13 14
3 3 2 2 2 2 1 1 1 1 0 -0 -0 -1 -1 -1 -1 -1 -1 -1 -1 -1 -0 0 0 1 1 2 2 3 4 4 5 7 8 9 10 10 11 11 12 12 13
2 2 2 2 2 1 1 1 0 0 -0 -1 -1 -1 -1 -2 -2 -2 -2 -2 -2 -2 -2 -1 -1 -1 -0 1 1 2 2 3 4 5 6 8 9 9 10 11 11 12 12
2 1 1 1 1 1 1 0 -0 -0 -1 -1 -1 -2 -2 -2 -3 -3 -3 -3 -3 -3 -3 -3 -3 -2 -2 -1 -0 0 1 2 3 4 5 6 7 8 9 10 11 11 12
1 1 1 1 1 1 0 -0 -1 -1 -1 -2 -2 -3 -3 -3 -4 -4 -4 -4 -4 -4 -4 -4 -4 -3 -3 -2 -1 -1 0 1 2 3 3 4 6 7 8 9 10 11 11
1 1 1 1 1 0 -0 -1 -1 -2 -2 -3 -3 -4 -4 -4 -5 -5 -5 -6 -6 -6 -5 -5 -5 -5 -4 -4 -3 -2 -1 0 1 1 2 3 4 5 6 8 9 10 11
0 0 0 0 0 -0 -1 -1 -2 -2 -3 -3 -4 -4 -5 -5 -6 -6 -6 -7 -7 -7 -6 -6 -6 -6 -6 -5 -4 -3 -2 -1 -0 0 1 1 2 3 4 6 8 9 10
-0 -1 -0 -0 -0 -1 -1 -2 -2 -3 -3 -4 -4 -5 -6 -6 -6 -7 -7 -8 -8 -8 -7 -7 -7 -7 -7 -7 -6 -5 -3 -2 -1 -1 -1 -0 0 1 3 4 6 8 9
-1 -1 -1 -1 -1 -1 -2 -2 -3 -3 -4 -4 -5 -6 -6 -7 -7 -8 -8 -8 -9 -9 -9 -9 -9 -8 -8 -8 -8 -6 -3 -2 -3 -3 -2 -1 -1 0 2 3 5 6 8
-1 -1 -1 -1 -2 -3 -3 -4 -4 -5 -5 -5 -6 -6 -7 -7 -8 -9 -9 -9 -10 -10 -10 -10 -10 -10 -10 -10 -10 -9 -8 -6 -4 -3 -3 -3 -2 -1 1 2 3 5 6
-1 -1 -2 -2 -3 -3 -4 -4 -4 -4 -5 -5 -6 -7 -7 -8 -9 -9 -10 -10 -11 -11 -11 -11 -11 -11 -11 -10 -10 -10 -9 -8 -9 -6 -5 -4 -4 -2 -1 0 2 3 5
-2 -2 -2 -3 -3 -4 -4 -5 -5 -6 -6 -7 -7 -8 -8 -9 -9 -10 -11 -11 -11 -12 -12 -12 -12 -12 -12 -12 -11 -11 -10 -10 -9 -8 -7 -6 -5 -4 -2 -1 1 2 3
-2 -2 -3 -3 -4 -4 -5 -5 -6 -6 -7 -7 -8 -8 -9 -9 -10 -11 -11 -12 -12 -12 -12 -12 -12 -12 -12 -12 -12 -11 -11 -10 -9 -9 -8 -7 -6 -5 -3 -2 -1 1 2
-2 -3 -3 -3 -4 -5 -5 -6 -6 -7 -7 -8 -9 -9 -10 -10 -11 -11 -12 -12 -12 -12 -13 -13 -12 -12 -12 -12 -12 -12 -11 -11 -10 -10 -9 -8 -7 -6 -4 -3 -2 -1 1

GEFSSE_850_meantemp_060.txt.gz
Temperature
7 7 8 8 9 9 10 10 10 10 10 10 10 10 10 10 10 10 11 11 11 12 12 12 12 13 13 13 14 14 14 14 14 15 15 15 16 16 16 16 16 16 16
6 7 7 8 9 9 9 10 10 10 10 10 10 9 9 9 9 9 9 10 10 10 11 11 11 12 12 13 13 13 14 14 14 14 15 15 15 15 16 16 16 16 16
7 7 7 8 8 9 9 9 9 9 9 8 8 8 8 8 8 8 8 8 8 9 9 9 10 10 11 11 12 13 13 13 14 14 14 14 14 15 15 16 16 16 16
7 7 8 8 8 8 8 8 8 8 7 7 7 7 7 7 7 7 7 7 7 7 7 8 8 9 9 10 11 11 12 12 13 14 14 14 14 14 15 15 15 16 16
7 7 7 8 8 8 8 7 7 7 6 6 6 6 6 6 6 6 6 6 6 6 6 6 7 7 8 8 9 10 11 11 13 13 13 13 14 14 14 15 15 15 15
7 7 7 8 8 7 7 6 6 6 5 5 5 5 5 5 5 5 5 5 5 5 5 5 5 6 6 7 8 9 9 10 11 12 12 13 13 13 14 14 14 15 15
7 7 7 7 7 7 7 6 5 5 5 5 4 4 5 5 4 4 4 4 4 4 4 4 4 5 5 6 6 7 8 9 10 11 11 12 12 13 13 13 14 14 15
7 7 7 7 7 6 6 6 5 5 4 4 4 4 4 4 4 4 4 4 4 4 3 4 4 4 4 4 5 6 7 8 9 9 10 11 11 12 12 13 13 14 14
6 6 6 6 6 6 5 5 4 4 4 4 4 4 4 4 4 3 3 3 3 3 3 3 3 3 3 4 4 5 5 6 7 8 9 9 10 11 12 12 13 13 14
6 6 6 6 5 5 4 4 4 4 4 4 3 3 3 3 3 3 3 3 2 2 2 2 3 3 3 3 3 4 4 5 5 6 7 8 9 10 11 11 12 12 13
5 5 5 5 5 4 4 3 3 3 3 3 3 3 3 3 3 2 2 2 2 2 2 2 2 2 2 2 2 3 3 3 4 5 6 7 8 9 9 10 11 12 12
4 4 5 4 4 3 3 3 2 2 2 2 2 2 2 2 1 2 2 2 1 1 1 1 1 1 1 1 1 2 1 2 2 3 4 5 7 7 8 9 10 11 11
4 4 4 4 3 3 2 2 1 1 1 1 1 1 1 1 0 0 0 -0 -0 -0 -0 0 0 -0 -0 -0 0 0 0 0 0 1 2 4 5 6 7 8 9 10 11
3 3 3 3 2 2 1 1 0 0 0 0 0 -0 -0 -1 -1 -1 -2 -2 -2 -2 -2 -2 -2 -2 -2 -2 -1 -1 -1 -1 -1 -0 1 3 4 5 6 7 8 9 10
3 3 2 2 1 1 0 0 -0 -0 -0 -1 -1 -1 -1 -2 -2 -3 -3 -4 -4 -4 -4 -4 -4 -4 -3 -3 -3 -2 -2 -2 -1 -1 -1 1 3 4 5 5 6 7 9
3 2 2 1 0 -0 -0 -0 -1 -1 -1 -1 -2 -2 -3 -3 -4 -4 -5 -5 -5 -5 -5 -6 -5 -5 -5 -5 -4 -4 -3 -2 -2 -2 -1 -0 1 3 3 4 5 6 7
2 2 1 0 -0 -0 -0 -1 -1 -1 -2 -2 -2 -3 -4 -4 -5 -6 -6 -6 -7 -7 -7 -7 -7 -6 -6 -6 -5 -5 -4 -3 -3 -2 -2 -1 -0 1 1 2 3 4 5
2 1 1 0 -0 -0 -0 -1 -1 -2 -2 -3 -3 -4 -5 -5 -5 -6 -7 -7 -8 -8 -8 -8 -8 -8 -7 -7 -7 -6 -5 -4 -3 -3 -3 -2 -2 -1 -0 0 1 3 4
1 1 0 -0 -0 -0 -1 -1 -2 -2 -3 -3 -4 -4 -5 -5 -6 -7 -7 -8 -8 -8 -9 -9 -9 -9 -9 -8 -8 -7 -6 -5 -4 -4 -3 -3 -2 -2 -2 -1 0 2 3
1 1 -0 -1 -1 -1 -1 -2 -2 -3 -3 -4 -4 -5 -5 -6 -7 -8 -8 -9 -9 -9 -9 -10 -10 -10 -9 -9 -9 -8 -7 -6 -5 -4 -4 -3 -3 -3 -2 -2 -1 0 2
1 0 -0 -1 -1 -2 -2 -2 -2 -3 -4 -5 -5 -6 -6 -7 -8 -8 -9 -10 -10 -10 -10 -10 -10 -10 -10 -10 -9 -9 -7 -6 -5 -5 -4 -4 -4 -3 -3 -2 -2 -1 1
0 0 -1 -1 -2 -2 -3 -3 -3 -4 -5 -6 -6 -7 -7 -8 -8 -9 -10 -10 -11 -11 -11 -11 -11 -11 -10 -10 -10 -10 -8 -7 -4 -6 -5 -5 -4 -4 -4 -3 -2 -1 -0
0 -0 -1 -2 -2 -3 -3 -3 -4 -5 -6 -6 -7 -7 -8 -8 -9 -10 -10 -11 -11 -11 -11 -11 -11 -11 -11 -11 -11 -10 -10 -9 -9 -8 -6 -5 -5 -5 -5 -4 -3 -2 -1
0 -1 -1 -2 -3 -3 -3 -4 -5 -5 -6 -7 -8 -8 -9 -9 -10 -10 -11 -11 -11 -11 -11 -11 -11 -12 -12 -11 -11 -11 -11 -11 -10 -9 -8 -7 -7 -6 -5 -4 -4 -2 -1
0 -1 -2 -2 -3 -3 -4 -4 -5 -6 -6 -7 -8 -9 -9 -10 -10 -11 -11 -11 -11 -11 -11 -12 -12 -12 -12 -12 -11 -11 -11 -11 -10 -10 -9 -8 -7 -6 -6 -5 -4 -3 -2
-0 -1 -2 -2 -3 -3 -4 -5 -5 -6 -7 -8 -8 -9 -10 -10 -10 -11 -11 -11 -11 -11 -11 -12 -12 -12 -12 -12 -12 -12 -11 -11 -11 -10 -10 -9 -8 -7 -6 -5 -4 -4 -3

GEFSSE_850_meantemp_066.txt.gz
Temperature
7 7 7 7 7 7 8 8 8 8 8 8 8 8 8 8 8 8 8 8 8 8 8 8 9 9 10 10 11 12 13 13 14 14 15 15 14 14 15 15 15 16 16
7 7 8 7 7 7 7 7 8 8 8 8 7 7 7 7 6 7 7 7 7 7 7 7 8 8 8 9 9 10 11 12 13 14 14 14 14 14 14 14 15 15 15
7 7 8 7 7 7 7 7 7 7 7 7 7 7 6 6 6 6 6 6 6 6 6 6 6 7 7 7 8 9 9 11 12 13 13 13 14 14 13 14 14 14 15
7 8 8 8 7 7 7 7 7 7 7 6 6 6 5 5 5 5 5 5 5 5 5 5 5 5 6 6 7 7 8 9 11 12 12 13 13 13 13 13 14 14 14
7 7 8 8 8 7 7 7 7 6 6 5 5 5 5 4 4 4 4 4 4 4 4 4 4 4 5 5 6 6 7 7 9 10 11 11 12 12 12 13 13 13 14
7 7 8 8 8 7 7 7 6 6 5 5 5 5 4 4 4 3 4 4 4 4 3 3 3 4 4 4 4 5 5 6 8 9 9 10 11 11 11 11 12 13 13
7 7 7 7 7 7 6 6 6 5 5 4 4 4 4 4 3 3 3 3 3 3 3 3 3 3 3 3 3 3 4 5 6 7 8 8 9 9 9 9 11 12 12
7 7 7 6 6 6 6 6 5 5 5 4 4 4 4 3 3 3 3 3 3 3 3 2 2 2 2 2 2 2 3 4 5 5 6 6 7 7 7 8 10 11 12
6 6 6 6 6 6 5 5 5 4 4 4 3 3 3 3 3 3 3 3 2 2 2 2 2 1 1 1 1 1 2 2 3 4 4 5 6 5 5 6 8 9 11
6 6 6 6 6 6 5 4 4 4 3 3 3 3 3 3 3 3 2 2 1 1 1 1 1 1 1 1 1 1 1 1 2 2 3 4 4 4 4 5 6 7 9
5 5 6 6 6 5 5 4 4 3 3 3 3 2 2 2 2 2 1 1 0 0 0 0 0 -0 0 0 0 -0 -0 0 0 1 1 2 2 3 3 4 4 6 7
5 5 5 5 5 5 5 4 3 3 2 2 2 1 1 1 1 1 1 0 -0 -0 -1 -1 -1 -1 -1 -1 -1 -1 -1 -1 -1 -1 -0 0 1 1 2 2 3 4 6
4 5 5 5 5 5 4 3 3 2 1 1 1 1 1 1 1 0 -0 -0 -1 -1 -2 -2 -2 -2 -2 -2 -2 -2 -2 -3 -2 -2 -2 -1 -0 0 1 1 2 3 4
4 4 4 4 4 4 4 3 1 1 1 0 0 -0 -0 -0 -1 -1 -1 -2 -2 -3 -3 -3 -3 -3 -3 -3 -4 -3 -3 -3 -3 -3 -3 -2 -2 -1 -0 1 1 2 3
4 3 4 4 4 4 3 2 1 0 0 -0 -0 -1 -1 -1 -2 -2 -2 -3 -4 -4 -4 -4 -5 -5 -5 -5 -5 -5 -5 -4 -4 -4 -4 -3 -3 -2 -1 -0 1 1 2
3 3 3 4 3 3 2 1 1 0 -1 -1 -1 -1 -2 -2 -3 -3 -3 -4 -5 -5 -5 -6 -6 -6 -6 -6 -6 -6 -6 -5 -5 -5 -5 -4 -4 -3 -2 -1 -0 1 1
3 3 3 3 3 2 2 1 0 -0 -1 -1 -1 -2 -3 -3 -3 -4 -4 -5 -6 -6 -6 -6 -7 -7 -7 -7 -7 -7 -7 -6 -6 -6 -5 -5 -4 -4 -3 -2 -1 -0 0
3 3 3 3 3 2 1 1 0 -1 -1 -1 -2 -2 -3 -3 -4 -5 -5 -6 -6 -7 -7 -7 -7 -8 -8 -8 -8 -8 -8 -7 -7 -6 -6 -5 -5 -4 -4 -3 -2 -1 -1
3 2 2 3 2 2 1 1 -0 -1 -1 -2 -2 -3 -3 -4 -5 -5 -6 -6 -7 -7 -8 -8 -8 -9 -9 -9 -9 -8 -8 -8 -7 -7 -6 -6 -5 -5 -4 -4 -3 -2 -2
2 2 2 2 2 2 1 1 0 -0 -1 -2 -2 -3 -4 -5 -5 -6 -6 -7 -8 -8 -8 -9 -9 -9 -9 -9 -9 -9 -9 -9 -8 -8 -7 -6 -6 -5 -5 -4 -4 -3 -3
2 2 1 2 2 1 1 1 0 -0 -1 -2 -3 -4 -4 -5 -6 -6 -7 -7 -8 -8 -9 -9 -9 -9 -9 -10 -10 -10 -9 -9 -9 -8 -8 -7 -7 -6 -6 -5 -5 -4 -4
2 2 1 1 1 1 1 0 -0 -1 -2 -3 -4 -4 -5 -6 -6 -7 -7 -8 -8 -9 -9 -9 -10 -10 -10 -10 -10 -10 -10 -10 -9 -9 -9 -9 -8 -8 -7 -6 -6 -5 -4
2 2 1 1 1 1 0 -0 -1 -2 -2 -3 -4 -4 -5 -6 -7 -7 -8 -8 -9 -9 -9 -10 -10 -10 -10 -10 -10 -10 -10 -10 -10 -10 -10 -10 -9 -8 -8 -7 -6 -6 -5
2 2 1 1 1 1 0 -0 -1 -2 -3 -3 -4 -5 -6 -6 -7 -8 -8 -9 -9 -9 -10 -10 -10 -10 -10 -10 -10 -10 -10 -11 -11 -11 -10 -10 -10 -9 -9 -8 -7 -6 -5
2 2 1 1 1 0 -0 -1 -2 -2 -3 -4 -5 -5 -6 -6 -7 -8 -8 -9 -9 -9 -10 -10 -10 -10 -10 -10 -10 -10 -11 -11 -11 -11 -11 -10 -10 -10 -9 -9 -8 -7 -6
2 2 1 1 0 0 -0 -1 -2 -3 -3 -4 -5 -5 -6 -7 -7 -8 -9 -9 -9 -10 -10 -10 -10 -10 -10 -10 -10 -10 -10 -11 -11 -11 -11 -11 -10 -10 -9 -9 -8 -7 -6